Regional Weather Roundup
Issued by NWS Upton, NY

Current Version | Previous Version | Text Only | Print | Product List | Glossary On
Versions: 1 2 3 4 5 6 7 8 9 10 11 12 13 14 15 16 17 18 19 20 21 22 23 24 25 26 27 28 29 30 31 32 33 34 35 36 37 38 39 40 41 42 43 44 45 46 47 48 49 50
000
ASUS41 KOKX 051808
RWROKX

REGIONAL WEATHER ROUNDUP
NATIONAL WEATHER SERVICE NEW YORK NY
200 PM EDT TUE MAY 05 2015

NOTE: "FAIR" INDICATES FEW OR NO CLOUDS BELOW 12,000 FEET WITH NO
SIGNIFICANT WEATHER AND/OR OBSTRUCTIONS TO VISIBILITY.

NYZ071-072-176-178-NJZ106-104-051900-
NEW YORK CITY METRO AREA


CITY           SKY/WX    TMP DP  RH WIND       PRES   REMARKS
CENTRAL PARK   PTSUNNY   80  53  39 VRB6      30.22F
LAGUARDIA APRT PTSUNNY   80  55  42 CALM      30.19F
KENNEDY INTL   PTSUNNY   81  53  37 S10       30.20F
NEWARK/LIBERTY PTSUNNY   84  53  34 VRB7G17   30.18F
BRNX BOT. GARD   N/A     79  54  41 W1        30.19F
TETERBORO      PTSUNNY   80  55  42 NW3       30.18F
$$

NYZ177-179-078>081-051900-
LONG ISLAND NEW YORK

CITY           SKY/WX    TMP DP  RH WIND       PRES   REMARKS
FARMINGDALE    PTSUNNY   77  54  44 W3        30.20F
ISLIP          CLOUDY    76  53  44 VRB5      30.19F
SHIRLEY        CLOUDY    73  54  51 S6        30.20F
WESTHAMPTON    CLOUDY    69  53  56 CALM      30.22F
MONTAUK POINT    N/A     68  52  56 VRB5      30.21F
$$

NYZ052-065-067-051900-
HUDSON VALLEY

CITY           SKY/WX    TMP DP  RH WIND       PRES   REMARKS
WHITE PLAINS   PTSUNNY   76  54  46 NW3       30.20F
NEWBURGH       NOT AVBL
MONTGOMERY     MOSUNNY   82  48  30 NW10      30.17F
POUGHKEEPSIE   MOSUNNY   80  50  34 VRB5      30.18F
ALBANY         PTSUNNY   78  47  33 NE10      30.20F
$$

NJZ001-105-106-008-010-013-015-019>022-104-051900-
NEW JERSEY

CITY           SKY/WX    TMP DP  RH WIND       PRES   REMARKS
NEWARK/LIBERTY PTSUNNY   84  53  34 VRB7G17   30.18F
TETERBORO      PTSUNNY   80  55  42 NW3       30.18F
CALDWELL       PTSUNNY   80  54  40 VRB7      30.19F
MORRISTOWN     PTSUNNY   79  55  44 N3        30.20F
SOMERVILLE     MOSUNNY   83  54  36 VRB7      30.17F
SUSSEX         PTSUNNY   80  49  33 NW8       30.20F
ANDOVER          N/A     79  53  40 VRB5      30.20F
TRENTON        MOSUNNY   82  55  39 NW8       30.20F
MILLVILLE      MOSUNNY   83  56  39 W10       30.21F
ATLANTIC CITY  PTSUNNY   82  55  39 NW9       30.21S
WRIGHTSTOWN    NOT AVBL
TOMS RIVER     MOSUNNY   82  54  36 CALM      30.19F
BELMAR         SUNNY     82  55  39 NW10      30.20F
$$

PAZ047>061-062-071-051900-
EASTERN PENNSYLVANIA

CITY           SKY/WX    TMP DP  RH WIND       PRES   REMARKS
PHILADELPHIA   MOSUNNY   81  55  40 SW7       30.21F
ALLENTOWN      MOSUNNY   81  55  40 W5        30.20F
SCRANTON       PTSUNNY   77  49  37 NW7       30.24F
$$

CTZ002-004>006-009-010-012-RIZ004-006-007-MAZ004-011-015-051900-
SOUTHERN NEW ENGLAND
 IN CT

CITY           SKY/WX    TMP DP  RH WIND       PRES   REMARKS
BRADLEY INTL   PTSUNNY   81  49  32 W6        30.16F
HARTFORD       MOSUNNY   78  50  37 VRB7      30.16F
DANBURY        PTSUNNY   77  49  37 VRB3      30.20F
WTRBRY/OXFORD  PTSUNNY   75  50  41 CALM      30.21F
BRIDGEPORT     CLOUDY    69  52  54 SW5       30.20F
MERIDEN        PTSUNNY   79  50  36 S3        30.17F
NEW HAVEN      CLOUDY    66  52  60 VRB3      30.19F
CHESTER        MOCLDY    77  52  41 S9        30.20S
GROTON         PTSUNNY   63  49  60 SW8       30.19S
WILLIMANTIC    MOSUNNY   80  48  32 CALM      30.18F

 IN RI

CITY           SKY/WX    TMP DP  RH WIND       PRES   REMARKS
PROVIDENCE     PTSUNNY   76  54  46 E7        30.19F
BLOCK ISLAND   PTSUNNY   70  54  56 S6        30.22S
WESTERLY       PTSUNNY   69  49  48 S9        30.20S

 IN MA

CITY           SKY/WX    TMP DP  RH WIND       PRES   REMARKS
BOSTON         PTSUNNY   67  57  70 SE9       30.18F
WORCESTER      PTSUNNY   74  50  42 W12       30.19F
WESTFIELD      PTSUNNY   82  44  26 NW9G18    30.16F
PROVINCETOWN   PTSUNNY   68  55  64 E6        30.21F
NANTUCKET      PTSUNNY   69  51  52 N8        30.21F
$$

ANZ330-335-338-340-345-350-353-355-051900-
COASTAL MARINE OBSERVATIONS


STATION/POSITION TIME  SKY/WX   TEMP    WIND        PRES    VSBY  WAVE
                                AIR SEA DIR/SP/G                  HT/PER
                 (UTC)          (F)     (DEG/KT/KT) (MB)    (MI)  (FT/S)
NY HARB ENTRANCE 1750            56 53  200/  6/  6 1022.8          3/ 5
4S FIRE IS       1703               50                N/A           3/ 5
20S FIRE ISLAND  1750            52 49  220/  6/  6 1023.1          3/ 5
GREAT SOUTH BAY  1700            59 60  240/  4/  6   N/A
23SW MTP         1750            50 48  240/  6/  6 1023.0          4/ 6
HUDSON CANYON    NOT AVBL
KINGS POINT      1700            72      CALM  /  1 1022.4
EASTERN LI SOUND 1700            54     180/  6/  8   N/A
ROBBINS REEF     1700            71     130/  4/  6 1021.6
$$


>>>>>>>>>>>>>>>>>>>>>>>>>>>> KEY <<<<<<<<<<<<<<<<<<<<<<<<<<<
>                                                          <
>     SKY/WX - SKY CONDITION/PRESENT WEATHER               <
>     TMP    - TEMPERATURE IN FAHRENHEIT                   <
>     DP     - DEWPOINT IN FAHRENHEIT                      <
>     RH     - RELATIVE HUMIDITY IN PERCENT                <
>     WIND   - DIRECTION AND SPEED IN MPH                  <
>     PRES   - MEAN SEA LEVEL PRESSURE IN INCHES OF HG     <
>     WCI    - WIND CHILL INDEX                            <
>     VSB    - VISIBILITY IN MILES                         <
>     HX     - HEAT INDEX                                  <
>     TC     - TEMPERATURE IN CELSIUS                      <
>     VRB    - VARIABLE WIND DIRECTION                     <
>                                                          <
>>>>>>>>>>>>>>>>>>>>>>>>>>>> KEY <<<<<<<<<<<<<<<<<<<<<<<<<<<




USA.gov is the U.S. government's official web portal to all federal, state and local government web resources and services.